Satellite-Ground Cal/Val Site Overpasses Predictions

Prediction of Satellite NPP Overpassing Cal/Val Site: Antarctic Dome C

Ground Cal/Val Site Location: Latitude: -75.10, Longitude: 123.35; Satellite-Ground Site NADIR distance within 100 km.

Table of predicted overpasses for the next 14.0 days since TLE Epoch: 5/14/2016
Interval Starting Time Ending Time Minimum Distance Time Minimum Distance (km)
1 05/15/2016 07:32:29 05/15/2016 07:32:58 05/15/2016 07:32:44 2.31
2 05/18/2016 14:55:56 05/18/2016 14:56:24 05/18/2016 14:56:10 20.22
3 05/19/2016 14:37:14 05/19/2016 14:37:28 05/19/2016 14:37:21 86.76
4 05/20/2016 07:38:47 05/20/2016 07:39:14 05/20/2016 07:39:00 36.95
5 05/21/2016 07:20:00 05/21/2016 07:20:20 05/21/2016 07:20:10 73.14
6 05/23/2016 15:02:15 05/23/2016 15:02:39 05/23/2016 15:02:27 57.41
7 05/24/2016 14:43:25 05/24/2016 14:43:50 05/24/2016 14:43:38 51.72
8 05/25/2016 07:45:06 05/25/2016 07:45:26 05/25/2016 07:45:16 72.19


NCC Satellite Cal/Val Overpasses Prediction Service
